Palmer, AK

5:56 PM AKDT on April 21, 2018 (GMT -0800)
Palmer Municipal

Weather History for PAAQ - November, 2013

Change the Weather History Date:

Friday, November 1, 2013

  Actual Average (PAJV) Record (PAJV)
Temperature  
Mean Temperature 38 °F -  
Max Temperature 42 °F 29 °F 44 °F (2002)
Min Temperature 35 °F 21 °F 3 °F (2008)
Degree Days  
Heating Degree Days 27    
Moisture  
Dew Point 37 °F    
Average Humidity 95    
Maximum Humidity 100    
Minimum Humidity 87    
Precipitation  
Precipitation 0.10 in - - ()
Sea Level Pressure  
Sea Level Pressure 29.86 in    
Wind  
Wind Speed 2 mph (NE)    
Max Wind Speed 7 mph    
Max Gust Speed -    
Visibility 9 miles    
Events Rain    
Averages and records for this station are not official NWS values.
T = Trace of Precipitation, MM = Missing Value Source: NWS Daily Summary

Daily Weather History Graph

Daily Weather History Graph

Search for Another Location

Airport or City:

Astronomy

Nov. 01, 2013 Rise Set
Actual Time 9:27 AM AKDT 5:51 PM AKDT
Civil Twilight 8:39 AM AKDT 6:39 PM AKDT
Nautical Twilight 7:46 AM AKDT 7:31 PM AKDT
Astronomical Twilight 6:56 AM AKDT 8:22 PM AKDT
Moon 7:02 AM AKDT (11/1) 5:11 PM AKDT (11/1)
Length of Visible Light 10h 00m
Length of Day
8h 24m
Waning Crescent, 4% of the Moon is Illuminated
Nov 1
Waning Crescent
Nov 3
New
Nov 9
First Quarter
Nov 17
Full
Nov 25
Last Quarter

Hourly Weather History & Observations

Time (AKDT) Temp. Windchill Dew Point Humidity Pressure Visibility Wind Dir Wind Speed Gust Speed Precip Events Conditions
12:23 AM 37.4 °F 32.1 °F 35.6 °F 93% 29.63 in 10.0 mi SE 6.9 mph - 0.00 in Rain Light Rain
12:53 AM 37.9 °F 33.5 °F 36.0 °F 93% 29.65 in 10.0 mi East 5.8 mph - 0.01 in Rain Light Rain
1:05 AM 37.4 °F 33.8 °F 35.6 °F 93% 29.64 in 10.0 mi East 4.6 mph - 0.00 in Rain Light Rain
1:53 AM 37.9 °F - 36.0 °F 93% 29.68 in 10.0 mi Calm Calm - 0.01 in Rain Light Rain
2:53 AM 37.9 °F 32.7 °F 36.0 °F 93% 29.70 in 10.0 mi East 6.9 mph - 0.01 in Rain Light Rain
3:53 AM 37.9 °F - 36.0 °F 93% 29.72 in 10.0 mi Calm Calm - 0.00 in Rain Light Rain
4:53 AM 37.9 °F - 37.0 °F 97% 29.74 in 10.0 mi Calm Calm - 0.01 in Rain Light Rain
5:53 AM 37.9 °F - 37.0 °F 97% 29.75 in 9.0 mi Calm Calm - 0.01 in Rain Light Rain
6:53 AM 37.9 °F - 37.0 °F 97% 29.77 in 7.0 mi Calm Calm - 0.03 in Rain Light Rain
7:53 AM 37.9 °F 35.5 °F 37.0 °F 97% 29.80 in 10.0 mi North 3.5 mph - 0.00 in Rain Light Rain
8:53 AM 36.0 °F - 35.1 °F 97% 29.81 in 10.0 mi Calm Calm - 0.01 in   Mostly Cloudy
9:10 AM 35.6 °F - 35.6 °F 100% 29.81 in 0.8 mi Calm Calm - N/A   Mostly Cloudy
9:47 AM 35.6 °F 30.7 °F 35.6 °F 100% 29.82 in 10.0 mi NNW 5.8 mph - N/A   Mostly Cloudy
9:53 AM 36.0 °F 32.1 °F 35.1 °F 97% 29.84 in 10.0 mi NNW 4.6 mph - N/A   Mostly Cloudy
10:13 AM 35.6 °F 32.8 °F 35.6 °F 100% 29.83 in 10.0 mi NNE 3.5 mph - N/A   Mostly Cloudy
10:30 AM 35.6 °F - 33.8 °F 93% 29.84 in 10.0 mi Calm Calm - 0.00 in Rain Light Rain
10:53 AM 37.0 °F 34.5 °F 36.0 °F 96% 29.86 in 10.0 mi North 3.5 mph - 0.00 in   Overcast
11:53 AM 37.0 °F - 37.0 °F 100% 29.88 in 10.0 mi Calm Calm - N/A   Overcast
12:53 PM 41.0 °F - 37.9 °F 89% 29.90 in 10.0 mi Calm Calm - N/A   Overcast
1:53 PM 41.0 °F - 37.9 °F 89% 29.91 in 10.0 mi Calm Calm - N/A   Overcast
2:53 PM 41.0 °F - 37.9 °F 89% 29.93 in 10.0 mi Calm Calm - N/A   Mostly Cloudy
3:50 PM 41.0 °F - 37.4 °F 87% 29.93 in 10.0 mi Calm Calm - N/A   Overcast
3:53 PM 41.0 °F - 37.9 °F 89% 29.94 in 10.0 mi Calm Calm - N/A   Overcast
4:02 PM 41.0 °F - 39.2 °F 93% 29.93 in 10.0 mi Calm Calm - N/A   Overcast
4:06 PM 41.0 °F - 39.2 °F 93% 29.93 in 10.0 mi Calm Calm - N/A   Overcast
4:53 PM 39.9 °F - 37.9 °F 93% 29.94 in 10.0 mi Calm Calm - N/A   Overcast
5:53 PM 39.9 °F - 37.9 °F 93% 29.94 in 10.0 mi Calm Calm - N/A   Overcast
6:48 PM 39.2 °F - 37.4 °F 93% 29.94 in 10.0 mi Calm Calm - N/A   Overcast
6:53 PM 39.0 °F - 37.9 °F 96% 29.96 in 10.0 mi Calm Calm - N/A   Overcast
7:00 PM 39.2 °F - 37.4 °F 93% 29.95 in 10.0 mi Calm Calm - N/A   Overcast
7:06 PM 39.2 °F - 37.4 °F 93% 29.95 in 10.0 mi Calm Calm - N/A   Overcast
7:53 PM 39.9 °F - 39.0 °F 97% 29.97 in 5.0 mi Calm Calm - N/A   Overcast
8:53 PM 39.0 °F - 39.0 °F 100% 29.99 in 4.0 mi Calm Calm - N/A   Overcast
9:15 PM 39.2 °F 37.0 °F 37.4 °F 93% 29.97 in 10.0 mi SE 3.5 mph - 0.00 in Rain Light Rain
9:53 PM 39.0 °F - 37.9 °F 96% 29.99 in 10.0 mi Calm Calm - 0.00 in Rain Light Rain
10:53 PM 39.0 °F - 37.9 °F 96% 30.00 in 10.0 mi Calm Calm - 0.00 in Rain Light Rain
11:53 PM 39.0 °F - 37.9 °F 96% 30.00 in 10.0 mi Calm Calm - 0.01 in Rain Light Rain